Showing default

UWE-4, 43880

Orbit data source: Space-Track

UWE-4, 43880 is a payload satellite owned by U Wurzburg (DE) in SSO that was launched on Thu, 27 Dec 2018 UTC via a SOYUZ-2-1A launch vehicle from the Vostochny Cosmodrome (VOSTO). Payload-class satellites include a variety of spacecraft equipped with specific instruments for various scientific and technological missions. These include communications satellites like Starlink; space stations such as the ISS; scientific satellites like the Hubble; Earth observation satellites from companies like Planet Labs, Umbra, and HawkEye 360; GPS; miniature CubeSats for education and research; and military/defense satellites.

Loading next visibility...
Identifier
43880, 2018-111E
Orbit
SSO
Last TLE update
11 hours ago
Origin
Manufacturer
U Wurzburg
Mission
Operational Amateur Technology
Bus & Motor
CUBESAT 1U, Unknown motor
Mass
1 kg wet, 1 kg dry
Launch date (UTC)
2018-12-27 (7 years ago)
Launch vehicle
SOYUZ-2-1A
Launch site
Vostochny Cosmodrome (VOSTO)
Object type
Payload
Rocket body
Debris
Shape & HBR
Box, 0.1 m
Radar Cross Section
0.015 m², Small (<0.1 m²)

Expand to show TLE details & history

TLE from 11 hours ago
0 UWE-4
1 43880U 18111E   25183.75042704  .00010916  00000-0  42072-3 0  9998
2 43880  97.5882  96.9795 0013589 124.0877 236.1653 15.26427834357164
Epoch: 2025-07-02T18:00Z
TLE epoch observation values (Epoch: 2025-07-02T18:00:36.896Z)
Latitude
0.00001°
Longitude
-94.20128°
Altitude
494.799 km
Speed
7.614 km/s
True Right ascension
06h 27m 55s
True Declination
0° 00' 00"
Sunlit
Object was in daylight at epoch
Visualization orbit readout
Latitude
7.9073°
Longitude
-94.78814°
Altitude
492.731 km
Speed
7.617 km/s
Apparent Right ascension
05h 45m 14s
Apparent Declination
-15° 17' 33"
Sunlit
Object is in daylight
Visualization observer readout
Local Sidereal Time
16:48:55
Azimuth
329.486° NNW
Elevation
-62.48°
Doppler factor
1
Orbital elements
Apogee altitude
492.791 km
Perigee altitude
474.142 km
Semi-major axis
6,861.603 km
Eccentricity
0.00136
Inclination
97.5882°
RAAN
96.9795°
Arg. of periapsis
124.0877°
True anomaly
Unknown
Mean anomaly
236.1653°
Eccentric anomaly
Unknown
Mean motion
3.81861 °/min
Orbital period
94.28 mins
BSTAR
0.00042072
Loading maneuver chart data...
Loading SW <> Apogee altitude chart data...
Loading historical data...
Loading historical data...
Loading historical data...
Loading historical data...
Loading historical data...
Loading historical data...
Loading historical data...

UWE-4 Visibility forecast

Observer location: undefined°, undefined°

Span
Click to sort rows by Start time (UTC) header in descending order
Start Az.
Max El. time (UTC)
Max El. Az.
Max El.
End time (UTC)
End Az.
6 mins2025-07-03 07:09:28.938Z10.233° NNE2025-07-03 07:12:28.938Z228.291° WSW44.44°2025-07-03 07:15:28.938Z195.681° SSW
5 mins2025-07-03 17:45:28.938Z125.801° SE2025-07-03 17:47:28.938Z74.575° E28.329°2025-07-03 17:50:28.938Z9.707° NNE
|